GW4671 Weather Reports


time (UTC)temp
F
wind
direction
speed
knots
gust
knots
rain 1hr
in
rain 24hr
in
rain mn
in
humidity
%
barometer
mb
20260509123040 76 0 0.0 0.9 0.00 0.00 0.00 91 1011.7
20260509121539 77 74 0.0 1.7 0.00 0.00 0.00 90 1011.5
20260509120047 77 66 0.0 2.6 0.00 0.00 0.00 89 1011.3
20260509114553 77 75 0.9 1.7 0.00 0.00 0.00 91 1011.2
20260509113053 78 12 0.0 1.7 0.00 0.00 0.00 91 1011.1
20260509111542 78 0 0.0 0.9 0.00 0.00 0.00 91 1011.1
20260509110041 79 0 0.0 0.0 0.00 0.00 0.00 91 1011.1
20260509104545 80 0 0.0 1.7 0.00 0.00 0.00 91 1010.6
20260509103045 80 0 0.0 0.9 0.00 0.00 0.00 90 1010.3
20260509101559 81 0 0.0 1.7 0.00 0.00 0.00 87 1010.0
20260509100042 82 0 0.0 1.7 0.00 0.00 0.00 86 1009.8
20260509094545 83 51 0.9 1.7 0.00 0.00 0.00 85 1009.7
20260509093049 84 144 0.0 1.7 0.00 0.00 0.00 82 1009.7
20260509091542 85 0 0.0 1.7 0.00 0.00 0.00 81 1009.5
20260509090057 85 143 0.0 1.7 0.00 0.00 0.00 81 1009.3
20260509084548 85 36 0.0 1.7 0.00 0.00 0.00 79 1009.2
20260509083056 85 0 0.0 2.6 0.00 0.00 0.00 79 1008.8
20260509081548 85 0 0.0 1.7 0.00 0.00 0.00 78 1008.8
20260509080042 85 104 0.0 0.9 0.00 0.00 0.00 79 1008.9
20260509074551 84 0 0.0 0.9 0.00 0.03 0.00 81 1008.8
20260509073043 85 203 0.0 1.7 0.00 0.03 0.00 80 1008.7
20260509071545 85 234 0.0 2.6 0.00 0.03 0.00 78 1008.5
20260509070042 86 217 0.0 1.7 0.00 0.03 0.00 79 1008.7
20260509064542 86 0 0.0 0.9 0.00 0.03 0.00 76 1008.7
20260509063046 86 0 0.0 0.9 0.00 0.03 0.00 78 1008.8
20260509061545 86 0 0.0 2.6 0.00 0.03 0.00 77 1008.9
20260509060049 87 304 0.9 3.5 0.00 0.03 0.00 77 1008.9
20260509054541 87 0 0.0 2.6 0.00 0.03 0.00 77 1009.4
20260509053109 88 0 0.9 3.5 0.00 0.03 0.00 77 1009.5
20260509051551 88 252 0.9 3.5 0.00 0.03 0.00 75 1009.4
20260509050046 89 280 0.9 2.6 0.00 0.03 0.00 71 1009.5
20260509044606 89 302 0.0 2.6 0.00 0.03 0.00 74 1009.7
20260509043051 90 265 0.0 1.7 0.00 0.03 0.00 73 1009.9
20260509041544 90 269 0.9 4.3 0.00 0.03 0.00 70 1010.1
20260509040047 89 245 0.9 3.5 0.00 0.03 0.00 70 1010.3
20260509034547 88 0 1.7 3.5 0.00 0.03 0.00 70 1010.7
20260509033046 88 241 0.0 2.6 0.00 0.03 0.00 74 1010.9
20260509031554 90 171 0.9 3.5 0.00 0.03 0.00 69 1011.1
20260509030104 88 148 0.9 2.6 0.00 0.03 0.00 69 1011.4
20260509024545 88 256 0.9 3.5 0.00 0.03 0.00 73 1011.6
20260509023044 88 0 0.9 3.5 0.00 0.03 0.00 75 1011.7
20260509021542 87 0 0.0 1.7 0.00 0.03 0.00 76 1011.8
20260509020041 88 200 1.7 3.5 0.00 0.03 0.00 73 1011.9
20260509014546 88 13 0.9 3.5 0.00 0.03 0.00 72 1012.1
20260509003053 85 301 0.9 2.6 0.00 0.03 0.00 75 1013.1
20260509001545 83 0 0.0 3.5 0.00 0.03 0.00 80 1013.0
20260509000043 83 0 0.9 1.7 0.00 0.03 0.00 79 1012.8
20260508234542 82 229 0.0 0.9 0.00 0.03 0.00 81 1012.3
20260508233041 81 0 0.0 1.7 0.00 0.03 0.00 84 1012.2
20260508231547 81 0 0.0 1.7 0.00 0.03 0.00 86 1012.2
20260508230045 81 0 0.0 1.7 0.00 0.03 0.00 84 1012.1
20260508224559 79 0 0.0 0.9 0.00 0.03 0.00 88 1012.3
20260508223049 77 0 0.0 1.7 0.00 0.03 0.00 92 1012.1
20260508221543 75 32 0.0 0.9 0.00 0.03 0.00 94 1012.0
20260508220052 75 32 0.0 0.9 0.00 0.03 0.00 94 1011.9
20260508214545 75 32 0.9 1.7 0.00 0.03 0.00 94 1011.8
20260508213044 74 0 0.9 1.7 0.00 0.03 0.00 94 1011.7
20260508211550 75 0 0.0 0.9 0.00 0.03 0.00 94 1011.3
20260508210049 75 0 0.0 1.7 0.00 0.03 0.00 94 1011.3
20260508204548 75 0 0.9 1.7 0.00 0.03 0.00 94 1011.1
20260508203046 76 9 0.0 1.7 0.00 0.03 0.00 93 1011.1
20260508201550 76 0 0.0 1.7 0.00 0.03 0.00 94 1011.1
20260508200042 76 355 0.0 1.7 0.00 0.03 0.00 94 1010.9
20260508194541 76 0 0.0 0.0 0.00 0.03 0.00 93 1010.7
20260508193046 76 0 0.0 0.9 0.00 0.03 0.00 94 1010.6
20260508191549 76 32 0.0 1.7 0.00 0.03 0.00 94 1010.6
20260508190047 76 80 0.9 1.7 0.00 0.03 0.00 94 1010.5
20260508184546 76 134 0.0 1.7 0.00 0.03 0.00 94 1010.7
20260508183043 76 0 0.0 0.9 0.00 0.03 0.00 94 1010.5
20260508181539 76 0 0.0 0.9 0.00 0.03 0.00 93 1010.8
20260508180047 77 44 0.0 1.7 0.00 0.03 0.00 93 1010.7
20260508174555 77 0 0.0 1.7 0.00 0.03 0.00 93 1011.2
20260508173042 77 0 0.0 0.0 0.00 0.03 0.00 93 1011.2
20260508171540 77 0 0.0 0.0 0.00 0.03 0.00 93 1011.1
20260508170039 77 0 0.0 0.0 0.00 0.03 0.00 93 1011.2
20260508164552 77 0 0.0 0.0 0.00 0.03 0.00 93 1011.5
20260508163045 77 0 0.0 0.0 0.00 0.03 0.00 93 1011.9
20260508161545 77 0 0.0 0.0 0.00 0.03 0.00 93 1011.9
20260508160040 77 0 0.0 0.0 0.00 0.03 0.00 93 1012.1
20260508154606 77 0 0.0 0.0 0.00 0.03 0.03 93 1012.0
20260508153047 77 0 0.0 0.0 0.00 0.03 0.03 93 1012.0
20260508151549 77 0 0.0 0.0 0.00 0.03 0.03 92 1012.1
20260508150056 77 0 0.0 0.0 0.00 0.03 0.03 92 1012.5
20260508144541 77 0 0.0 0.0 0.00 0.03 0.03 92 1012.5
20260508143105 78 0 0.0 0.0 0.00 0.03 0.03 92 1012.4
20260508141545 78 0 0.0 0.0 0.00 0.03 0.03 92 1012.3
20260508140059 78 0 0.0 1.7 0.00 0.03 0.03 92 1012.7
20260508134542 78 0 0.0 1.7 0.00 0.03 0.03 91 1012.4
20260508133044 78 333 0.0 3.5 0.00 0.03 0.03 91 1012.3
20260508131539 78 0 0.0 0.0 0.00 0.03 0.03 92 1012.1
20260508130039 78 0 0.0 0.0 0.00 0.03 0.03 91 1012.1
20260508124542 78 0 0.0 0.0 0.00 0.03 0.03 90 1012.0